sat.trackr.live / text

‹ back to catalog

STARLINK-2466

NORAD 48125 · 2021-027AK

PAYLOAD ACTIVE UNKNOWN

§ Identity

Operator
Country
US
Launch date
2021-04-07
Launch site
AFETR
Launch vehicle
Mass (kg)
RCS (m²)

Purposes: comms

External: N2YO · Heavens-Above · Gunter

§ Orbital elements

Epoch: 2026-05-25T01:31:11.272224Z

Period
94.01 min
Inclination
53.1609°
Eccentricity
0.0001717
Mean motion
15.31703258 rev/d
Perigee alt
469.6 km
Apogee alt
471.9 km
Semi-major
6,848.9 km
B*
5.6922e-5
RAAN
170.3802°
Arg perigee
45.7969°
Mean anomaly
314.3173°
Rev number
28,420

§ Raw data

STARLINK-24661 48125U 21027AK  26145.06332491  .00001401  00000+0  56922-4 0  99912 48125  53.1609 170.3802 0001717  45.7969 314.3173 15.31703258284206

JSON: /api/v1/satellites/48125 · /tle

For live sub-satellite position, see the globe view (requires WebGL).

§ Visibility from observer

Set your observer location to see the next 7 days of passes ≥ 10°. The values pass through the URL so the page stays shareable.

No JS? Fill the form by hand. The geolocation button needs JavaScript.